Flag for Canada Weather past 2 weeks in Brantford, Ontario, Canada

Now
25 °F

Passing clouds.


Feels Like: 19 °F
Forecast: 23 / 32 °F
Wind: 5 mph from West

Location: Hamilton Airport

Current Time: Dec 21, 2014 at 3:53:14 AM

Latest Report: Dec 21, 2014 at 3:00 AM


Visibility: 15 mi

Pressure: 30.30 "Hg

Humidity: 86%

Dew point: 21 °F

Location of BrantfordLocation

Historic Weather in Brantford — Graph

°F

Brantford temperature yesterday

Maximum temperature yesterday: 32 °F (at 3:00 PM)
Minimum temperature yesterday: 16 °F (at 7:00 AM)
Average temperature yesterday: 24 °F

Past Weeks' High & Low Weather Summary

 TemperatureHumidityPressure
High43 °F (Dec 16, 9:00 PM)100% (Dec 6, 2:00 AM)30.78 "Hg (Dec 6, 2:00 AM)
Low16 °F (Dec 20, 7:00 AM)47% (Dec 11, 6:00 PM)29.71 "Hg (Dec 16, 1:54 PM)
Average31 °F83%30.13 "Hg
* Reported Dec 6 2:00 AM — Dec 21 2:00 AM, Brantford, Weather by CustomWeather, © 2014

Note: Actual official high and low records may vary slightly from our data, if they occured in-between our weather recording intervals... More about our weather records

Advertising

Brantford weather history for previous 24 hours

 ConditionsComfort  
Time TempWeatherWind HumidityBarometerVisibility
2:00 AM
Dec 21
27 °FPassing clouds.5 mph80%30.29 "Hg15 mi
1:00 AM27 °FOvercast.5 mph80%30.28 "Hg15 mi
12:00 AM27 °FOvercast.5 mph80%30.29 "Hg15 mi
11:00 PM
Dec 20
27 °FOvercast.5 mph80%30.30 "Hg15 mi
10:00 PM27 °FOvercast.3 mph86%30.30 "Hg15 mi
9:00 PM27 °FPassing clouds.5 mph80%30.30 "Hg15 mi
8:00 PM27 °FPassing clouds.3 mph80%30.31 "Hg15 mi
7:00 PM27 °FPassing clouds.2 mph80%30.30 "Hg15 mi
6:00 PM27 °FPassing clouds.6 mph80%30.29 "Hg15 mi
5:00 PM28 °FPassing clouds.5 mph69%30.28 "Hg15 mi
4:00 PM32 °FPartly sunny.5 mph55%30.27 "Hg15 mi
3:00 PM32 °FPartly sunny.5 mph55%30.27 "Hg15 mi
2:00 PM30 °FPartly sunny.2 mph69%30.27 "Hg15 mi
1:00 PM30 °FPartly sunny.No wind69%30.28 "Hg15 mi
12:00 PM28 °FPartly sunny.5 mph69%30.28 "Hg15 mi
11:00 AM28 °FScattered clouds.5 mph74%30.31 "Hg15 mi
10:00 AM25 °FPassing clouds.6 mph86%30.32 "Hg15 mi
9:00 AM21 °FPassing clouds.3 mph86%30.33 "Hg15 mi
8:00 AM18 °FPassing clouds.3 mph86%30.33 "Hg15 mi
7:00 AM16 °FPassing clouds.5 mph93%30.32 "Hg15 mi
6:00 AM18 °FPassing clouds.5 mph93%30.32 "Hg15 mi
5:00 AM18 °FPassing clouds.5 mph93%30.30 "Hg15 mi
4:00 AM18 °FPassing clouds.5 mph93%30.29 "Hg15 mi
3:00 AM18 °FPassing clouds.3 mph93%30.28 "Hg15 mi
Weather by CustomWeather, © 2014

See weather overviewHow to use our weather pages